CW2401 Weather Reports


time (UTC)temp
F
wind
direction
speed
knots
gust
knots
rain 1hr
in
rain 24hr
in
rain mn
in
humidity
%
barometer
mb
20260502195050 59 355 1.7 6.1 0.00 0.00 0.00 68 1012.8
20260502194650 59 42 1.7 4.3 0.00 0.00 0.00 68 1012.8
20260502194448 59 17 0.9 3.5 0.00 0.00 0.00 69 1012.9
20260502194250 59 36 0.9 4.3 0.00 0.00 0.00 68 1012.8
20260502194050 59 189 0.9 4.3 0.00 0.00 0.00 69 1012.9
20260502193849 59 339 0.9 4.3 0.00 0.00 0.00 70 1013.0
20260502193650 59 342 0.9 4.3 0.00 0.00 0.00 70 1013.0
20260502193247 59 355 0.9 3.5 0.00 0.00 0.00 70 1013.0
20260502193049 59 355 0.9 5.2 0.00 0.00 0.00 70 1013.0
20260502192646 59 355 0.9 5.2 0.00 0.00 0.00 70 1013.0
20260502192446 59 355 0.9 5.2 0.00 0.00 0.00 69 1013.0
20260502192245 59 355 0.9 5.2 0.00 0.00 0.00 68 1013.0
20260502192044 59 0 0.9 4.3 0.00 0.00 0.00 68 1013.0
20260502191842 59 5 0.9 4.3 0.00 0.00 0.00 68 1012.9
20260502191644 59 145 0.9 3.5 0.00 0.00 0.00 68 1013.0
20260502191442 59 57 0.9 5.2 0.00 0.00 0.00 68 1012.9
20260502191243 59 321 1.7 5.2 0.00 0.00 0.00 68 1012.9
20260502190842 59 328 1.7 5.2 0.00 0.00 0.00 68 1013.0
20260502190640 59 11 0.9 5.2 0.00 0.00 0.00 69 1013.0
20260502190441 59 338 0.9 4.3 0.00 0.00 0.00 71 1013.0
20260502190241 59 348 0.9 4.3 0.00 0.00 0.00 71 1013.0
20260502190041 59 346 1.7 4.3 0.00 0.00 0.00 70 1013.0
20260502185841 59 11 1.7 4.3 0.00 0.00 0.00 70 1013.0
20260502185643 59 12 1.7 5.2 0.00 0.00 0.00 71 1013.0
20260502185443 59 346 1.7 5.2 0.00 0.00 0.00 71 1013.0
20260502185240 59 327 1.7 5.2 0.00 0.00 0.00 71 1013.0
20260502185040 59 109 1.7 5.2 0.00 0.00 0.00 70 1013.0
20260502184841 59 344 1.7 5.2 0.00 0.00 0.00 71 1013.1
20260502184641 59 294 0.9 3.5 0.00 0.00 0.00 73 1013.1
20260502184442 59 350 0.9 2.6 0.00 0.00 0.00 73 1013.1
20260502184241 59 348 0.9 2.6 0.00 0.00 0.00 74 1013.1
20260502184041 58 0 0.9 2.6 0.00 0.00 0.00 74 1013.2
20260502183841 58 0 0.0 2.6 0.00 0.00 0.00 74 1013.2
20260502183440 58 334 0.0 0.9 0.00 0.00 0.00 74 1013.2
20260502183241 58 244 0.0 1.7 0.00 0.00 0.00 73 1013.3
20260502183042 58 345 0.9 3.5 0.00 0.00 0.00 74 1013.4
20260502182841 58 344 0.9 4.3 0.00 0.00 0.00 73 1013.4
20260502182441 58 344 0.9 4.3 0.00 0.00 0.00 72 1013.4
20260502182041 58 288 0.9 4.3 0.00 0.00 0.00 74 1013.4
20260502181843 58 0 0.9 3.5 0.00 0.00 0.00 74 1013.4
20260502181642 58 0 0.9 3.5 0.00 0.00 0.00 74 1013.5
20260502181441 58 0 0.9 3.5 0.00 0.00 0.00 73 1013.5
20260502181242 58 0 0.9 3.5 0.00 0.00 0.00 74 1013.5
20260502181043 58 28 0.9 2.6 0.00 0.00 0.00 74 1013.6
20260502180840 58 344 0.9 2.6 0.00 0.00 0.00 74 1013.5
20260502180641 58 344 0.0 2.6 0.00 0.00 0.00 75 1013.5
20260502180442 58 355 0.0 3.5 0.00 0.00 0.00 76 1013.5
20260502180240 58 355 0.9 3.5 0.00 0.00 0.00 74 1013.5
20260502170440 57 306 1.7 4.3 0.00 0.00 0.00 76 1013.9
20260502170239 57 317 1.7 4.3 0.00 0.00 0.00 78 1013.9
20260502164231 57 305 0.9 4.3 0.00 0.00 0.00 78 1014.0
20260502163830 57 319 0.9 4.3 0.00 0.00 0.00 76 1013.9
20260502163630 57 210 0.9 4.3 0.00 0.00 0.00 76 1014.0
20260502163429 57 121 0.9 4.3 0.00 0.00 0.00 78 1014.0
20260502163027 57 44 1.7 4.3 0.00 0.00 0.00 78 1014.2
20260502162826 56 240 0.9 4.3 0.00 0.00 0.00 78 1014.4
20260502162626 56 155 0.9 3.5 0.00 0.00 0.00 79 1014.5
20260502162427 56 332 0.9 3.5 0.00 0.00 0.00 78 1014.5
20260502162027 56 282 0.0 3.5 0.00 0.00 0.00 81 1014.8
20260502161824 56 283 0.9 3.5 0.00 0.00 0.00 81 1014.9
20260502161225 56 300 0.9 3.5 0.00 0.00 0.00 80 1015.2
20260502161025 56 298 0.9 2.6 0.00 0.00 0.00 81 1015.2
20260502160825 56 296 0.9 2.6 0.00 0.00 0.00 82 1015.2
20260502160621 56 177 0.0 1.7 0.00 0.00 0.00 83 1015.3
20260502160218 56 177 0.0 0.9 0.00 0.00 0.00 82 1015.3
20260502151957 56 227 0.0 1.7 0.00 0.00 0.00 80 1014.4
20260502151553 56 328 0.0 2.6 0.00 0.00 0.00 80 1014.5
20260502151352 56 328 0.0 2.6 0.00 0.00 0.00 81 1014.6
20260502151153 56 328 0.0 2.6 0.00 0.00 0.00 81 1014.6
20260502150950 56 328 0.0 2.6 0.00 0.00 0.00 80 1014.6
20260502150750 56 313 0.0 1.7 0.00 0.00 0.00 81 1014.7
20260502150550 56 311 0.0 2.6 0.00 0.00 0.00 81 1014.6
20260502150348 56 311 0.0 2.6 0.00 0.00 0.00 81 1014.7
20260502150146 56 311 0.0 2.6 0.00 0.00 0.00 81 1014.9
20260502140121 55 325 0.9 4.3 0.00 0.00 0.00 80 1014.6
20260502130659 54 326 0.9 3.5 0.00 0.00 0.00 80 1014.0
20260502130458 54 327 0.9 3.5 0.00 0.00 0.00 80 1014.0
20260502130255 54 315 0.9 3.5 0.00 0.00 0.00 80 1014.1
20260502123443 53 351 0.9 3.5 0.00 0.00 0.00 82 1014.2
20260502123242 53 355 0.9 3.5 0.00 0.00 0.00 82 1014.2
20260502123040 53 346 0.9 3.5 0.00 0.00 0.00 83 1014.1
20260502122441 53 0 0.9 5.2 0.00 0.00 0.00 83 1014.2
20260502122238 53 0 0.9 5.2 0.00 0.00 0.00 83 1014.1
20260502122039 53 0 0.9 5.2 0.00 0.00 0.00 84 1014.1
20260502121834 53 355 0.9 2.6 0.00 0.00 0.00 84 1014.1
20260502121433 53 26 0.0 3.5 0.00 0.00 0.00 84 1013.9
20260502121234 53 44 0.9 3.5 0.00 0.00 0.00 85 1013.8
20260502121033 53 57 0.9 4.3 0.00 0.00 0.00 85 1013.8
20260502120832 53 57 0.9 4.3 0.00 0.00 0.00 85 1013.8
20260502120233 53 0 0.9 4.3 0.00 0.00 0.00 86 1013.8
20260502115833 53 17 0.0 3.5 0.00 0.00 0.00 86 1013.8
20260502115029 53 18 0.9 3.5 0.00 0.00 0.00 87 1013.9
20260502114828 53 5 0.9 3.5 0.00 0.00 0.00 87 1013.9
20260502113830 53 5 0.0 3.5 0.00 0.00 0.00 87 1013.9
20260502113631 53 5 0.0 1.7 0.00 0.00 0.00 87 1013.9
20260502113430 53 5 0.0 1.7 0.00 0.00 0.00 89 1013.9
20260502113228 53 5 0.0 1.7 0.00 0.00 0.00 89 1013.9
20260502113028 53 5 0.9 3.5 0.00 0.00 0.00 89 1013.9
20260502112625 53 36 0.0 3.5 0.00 0.00 0.00 88 1013.9
20260502112424 53 36 0.0 3.5 0.00 0.00 0.00 88 1013.8
20260502112225 53 36 0.0 3.5 0.00 0.00 0.00 88 1013.7
20260502112023 53 54 0.0 0.9 0.00 0.00 0.00 89 1013.8
20260502111825 53 54 0.0 0.9 0.00 0.00 0.00 88 1013.7
20260502111625 53 54 0.0 1.7 0.00 0.00 0.00 88 1013.7
20260502111424 53 54 0.0 1.7 0.00 0.00 0.00 88 1013.7
20260502110820 53 54 0.0 1.7 0.00 0.00 0.00 88 1013.8
20260502110421 53 333 0.0 1.7 0.00 0.00 0.00 88 1013.9
20260502110218 53 331 0.0 1.7 0.00 0.00 0.00 88 1013.8
20260502110019 53 331 0.0 1.7 0.00 0.00 0.00 89 1013.9
20260502105818 53 331 0.0 2.6 0.00 0.00 0.00 89 1013.9
20260502105618 53 326 0.0 2.6 0.00 0.00 0.00 89 1014.0
20260502105417 53 326 0.0 2.6 0.00 0.00 0.00 89 1013.9
20260502105219 53 326 0.0 2.6 0.00 0.00 0.00 89 1013.8
20260502105013 53 326 0.0 2.6 0.00 0.00 0.00 89 1013.8
20260502104814 53 5 0.0 3.5 0.00 0.00 0.00 89 1013.8
20260502104412 53 5 0.0 3.5 0.00 0.00 0.00 89 1013.9
20260502104211 53 5 0.0 3.5 0.00 0.00 0.00 89 1013.9
20260502104010 53 5 0.0 3.5 0.00 0.00 0.00 90 1014.0
20260502103809 53 338 0.0 3.5 0.00 0.00 0.00 90 1014.0
20260502103408 53 338 0.9 3.5 0.00 0.00 0.00 90 1014.1
20260502103206 53 339 0.9 3.5 0.00 0.00 0.00 90 1014.0
20260502103005 53 340 0.9 3.5 0.00 0.00 0.00 90 1014.0
20260502102804 52 355 0.9 4.3 0.00 0.00 0.00 90 1014.1
20260502102603 52 355 0.9 4.3 0.00 0.00 0.00 90 1014.0
20260502102402 52 338 0.9 4.3 0.00 0.00 0.00 90 1014.0
20260502102203 52 338 0.9 4.3 0.00 0.00 0.00 91 1014.0
20260502102002 52 338 0.9 4.3 0.00 0.00 0.00 91 1014.1
20260502101800 52 338 0.9 2.6 0.00 0.00 0.00 91 1014.2
20260502101357 52 69 0.0 1.7 0.00 0.00 0.00 91 1014.2
20260502101154 52 69 0.0 0.9 0.00 0.00 0.00 91 1014.2
20260502100952 52 69 0.0 0.9 0.00 0.00 0.00 91 1014.1
20260502100751 52 69 0.0 0.9 0.00 0.00 0.00 91 1014.1
20260502100550 52 69 0.0 0.9 0.00 0.00 0.00 91 1014.2
20260502100348 52 69 0.0 1.7 0.00 0.00 0.00 91 1014.1
20260502100146 52 69 0.9 1.7 0.00 0.00 0.00 91 1014.1
20260502091526 52 69 0.0 0.0 0.00 0.00 0.00 91 1014.1
20260502091325 52 69 0.0 0.0 0.00 0.00 0.00 91 1014.0
20260502090926 52 69 0.0 0.0 0.00 0.00 0.00 91 1014.1
20260502090727 52 69 0.0 0.0 0.00 0.00 0.00 91 1014.0
20260502090523 52 69 0.0 0.0 0.00 0.00 0.00 91 1014.0
20260502090322 52 69 0.0 0.0 0.00 0.00 0.00 91 1013.9
20260502090122 52 69 0.0 0.0 0.00 0.00 0.00 91 1013.9
20260502071222 51 69 0.0 0.9 0.00 0.00 0.00 91 1013.3
20260502071021 51 69 0.0 0.9 0.00 0.00 0.00 91 1013.2
20260502070820 51 69 0.0 0.9 0.00 0.00 0.00 91 1013.2
20260502070618 51 69 0.0 0.9 0.00 0.00 0.00 91 1013.2
20260502070419 51 69 0.0 0.0 0.00 0.00 0.00 91 1013.3
20260502070219 51 70 0.0 0.0 0.00 0.00 0.00 91 1013.3
20260502070017 51 70 0.0 0.0 0.00 0.00 0.00 91 1013.3
20260502065817 51 69 0.0 0.0 0.00 0.00 0.00 91 1013.2
20260502065617 51 70 0.0 0.0 0.00 0.00 0.00 91 1013.2
20260502065219 51 69 0.0 0.0 0.00 0.00 0.00 91 1013.2
20260502065018 51 69 0.0 0.0 0.00 0.00 0.00 91 1013.2
20260502064619 51 70 0.0 0.0 0.00 0.00 0.00 91 1013.3
20260502064417 51 70 0.0 0.0 0.00 0.00 0.00 91 1013.3
20260502064217 51 69 0.0 0.0 0.00 0.00 0.00 91 1013.3
20260502064015 51 70 0.0 0.0 0.00 0.00 0.00 91 1013.4
20260502063815 51 70 0.0 0.0 0.00 0.00 0.00 91 1013.4
20260502063616 51 69 0.0 0.0 0.00 0.00 0.00 91 1013.3
20260502063417 51 70 0.0 0.0 0.00 0.00 0.00 91 1013.3
20260502063214 51 70 0.0 0.0 0.00 0.00 0.00 91 1013.3
20260502063014 51 70 0.0 0.0 0.00 0.00 0.00 91 1013.3
20260502062815 51 70 0.0 0.0 0.00 0.00 0.00 91 1013.3
20260502062615 51 70 0.0 0.0 0.00 0.00 0.00 91 1013.3
20260502062413 51 70 0.0 0.0 0.00 0.00 0.00 91 1013.2
20260502062213 51 70 0.0 0.0 0.00 0.00 0.00 91 1013.2
20260502061814 51 70 0.0 0.0 0.00 0.00 0.00 91 1013.2
20260502061614 51 69 0.0 0.0 0.00 0.00 0.00 91 1013.3
20260502061413 51 70 0.0 0.0 0.00 0.00 0.00 91 1013.3
20260502061215 51 70 0.0 0.0 0.00 0.00 0.00 91 1013.4
20260502061015 51 69 0.0 0.0 0.00 0.00 0.00 91 1013.3
20260502060814 51 70 0.0 0.0 0.00 0.00 0.00 91 1013.3
20260502060615 51 69 0.0 0.0 0.00 0.00 0.00 91 1013.3
20260502060413 51 70 0.0 0.0 0.00 0.00 0.00 91 1013.3
20260502060214 51 70 0.0 0.0 0.00 0.00 0.00 91 1013.3
20260502060013 51 69 0.0 0.0 0.00 0.00 0.00 91 1013.3
20260502055813 51 70 0.0 0.0 0.00 0.00 0.00 91 1013.3
20260502055613 51 70 0.0 0.0 0.00 0.00 0.00 91 1013.2
20260502055414 51 70 0.0 0.0 0.00 0.00 0.00 91 1013.2
20260502055015 51 69 0.0 0.0 0.00 0.00 0.00 91 1013.3
20260502054813 51 69 0.0 0.0 0.00 0.00 0.00 90 1013.4
20260502054613 51 69 0.0 0.0 0.00 0.00 0.00 90 1013.4
20260502054414 51 69 0.0 0.0 0.00 0.00 0.00 90 1013.4
20260502054213 51 69 0.0 0.0 0.00 0.00 0.00 90 1013.5
20260502054013 51 70 0.0 0.0 0.00 0.00 0.00 90 1013.6
20260502053815 51 69 0.0 0.0 0.00 0.00 0.00 90 1013.6
20260502053615 51 70 0.0 0.0 0.00 0.00 0.00 90 1013.6
20260502053214 51 70 0.0 0.0 0.00 0.00 0.00 90 1013.7
20260502052813 51 70 0.0 0.0 0.00 0.00 0.00 90 1013.7
20260502052614 51 70 0.0 0.0 0.00 0.00 0.00 90 1013.7
20260502052414 51 70 0.0 0.0 0.00 0.00 0.00 90 1013.7
20260502052214 51 70 0.0 0.0 0.00 0.00 0.00 90 1013.6
20260502052013 51 70 0.0 0.0 0.00 0.00 0.00 90 1013.6
20260502051814 51 70 0.0 0.0 0.00 0.00 0.00 90 1013.6
20260502051614 51 69 0.0 0.0 0.00 0.00 0.00 90 1013.6
20260502051413 51 70 0.0 0.0 0.00 0.00 0.00 90 1013.6
20260502051214 51 69 0.0 0.0 0.00 0.00 0.00 90 1013.6
20260502050414 51 70 0.0 0.0 0.00 0.00 0.00 90 1013.7
20260502050014 51 70 0.0 0.0 0.00 0.00 0.00 90 1013.7
20260502045814 51 69 0.0 0.0 0.00 0.00 0.00 90 1013.7
20260502045613 51 70 0.0 0.0 0.00 0.00 0.00 90 1013.7
20260502045413 52 69 0.0 0.0 0.00 0.00 0.00 90 1013.8
20260502045015 52 69 0.0 0.0 0.00 0.00 0.00 90 1013.8
20260502044815 52 70 0.0 0.0 0.00 0.00 0.00 90 1013.8
20260502044613 52 69 0.0 0.0 0.00 0.00 0.00 90 1014.0
20260502044414 52 69 0.0 0.0 0.00 0.00 0.00 90 1014.0
20260502044213 52 69 0.0 0.0 0.00 0.00 0.00 90 1014.0
20260502043815 52 70 0.0 0.0 0.00 0.00 0.00 90 1014.0
20260502043613 52 70 0.0 0.0 0.00 0.00 0.00 90 1014.0
20260502043414 52 70 0.0 0.0 0.00 0.00 0.00 90 1014.0
20260502043213 52 70 0.0 0.0 0.00 0.00 0.00 90 1014.0
20260502042813 52 70 0.0 0.0 0.00 0.00 0.00 89 1014.0
20260502042613 52 70 0.0 0.0 0.00 0.00 0.00 89 1014.0
20260502042411 52 70 0.0 0.0 0.00 0.00 0.00 89 1013.9
20260502041212 52 70 0.0 0.0 0.00 0.00 0.00 89 1014.0
20260502041011 52 70 0.0 0.0 0.00 0.00 0.00 89 1014.1
20260502040612 52 70 0.0 0.0 0.00 0.00 0.00 89 1014.1
20260502040412 52 70 0.0 0.0 0.00 0.00 0.00 89 1014.0
20260502040214 52 70 0.0 0.0 0.00 0.00 0.00 89 1014.0
20260502040012 52 69 0.0 0.0 0.00 0.00 0.00 89 1014.1
20260502035611 52 69 0.0 0.0 0.00 0.00 0.00 89 1014.1
20260502035413 52 69 0.0 0.0 0.00 0.00 0.00 89 1014.2
20260502035211 52 69 0.0 0.0 0.00 0.00 0.00 89 1014.2
20260502035013 52 69 0.0 0.0 0.00 0.00 0.00 89 1014.2
20260502034812 52 70 0.0 0.0 0.00 0.00 0.00 89 1014.2
20260502034609 52 69 0.0 0.0 0.00 0.00 0.00 89 1014.2
20260502034409 52 70 0.0 0.0 0.00 0.00 0.00 89 1014.2
20260502034209 52 70 0.0 0.0 0.00 0.00 0.00 89 1014.3
20260502034010 52 70 0.0 0.0 0.00 0.00 0.00 89 1014.3
20260502033810 52 69 0.0 0.0 0.00 0.00 0.00 89 1014.3
20260502033408 52 70 0.0 0.0 0.00 0.00 0.00 89 1014.3
20260502033208 52 69 0.0 0.0 0.00 0.00 0.00 88 1014.3
20260502033008 52 70 0.0 0.0 0.00 0.00 0.00 88 1014.2
20260502032808 52 69 0.0 0.0 0.00 0.00 0.00 88 1014.2
20260502032607 52 69 0.0 0.0 0.00 0.00 0.00 88 1014.2
20260502032409 52 70 0.0 0.0 0.00 0.00 0.00 89 1014.2
20260502032206 52 69 0.0 0.0 0.00 0.00 0.00 88 1014.2
20260502032006 53 69 0.0 0.0 0.00 0.00 0.00 88 1014.1
20260502031805 53 69 0.0 0.0 0.00 0.00 0.00 88 1014.1
20260502031606 53 70 0.0 0.0 0.00 0.00 0.00 88 1014.1
20260502031407 53 69 0.0 0.0 0.00 0.00 0.00 88 1014.2
20260502031205 53 69 0.0 0.0 0.00 0.00 0.00 88 1014.2
20260502031006 53 69 0.0 0.0 0.00 0.00 0.00 88 1014.2
20260502030805 53 70 0.0 0.0 0.00 0.00 0.00 88 1014.2
20260502030604 53 69 0.0 0.0 0.00 0.00 0.00 88 1014.2
20260502030405 53 70 0.0 0.0 0.00 0.00 0.00 88 1014.2
20260502030205 53 70 0.0 0.0 0.00 0.00 0.00 88 1014.2
20260502025803 53 69 0.0 0.0 0.00 0.00 0.00 87 1014.2
20260502025603 53 70 0.0 0.0 0.00 0.00 0.00 87 1014.3
20260502025401 53 69 0.0 0.0 0.00 0.00 0.00 87 1014.3
20260502025201 53 70 0.0 0.0 0.00 0.00 0.00 88 1014.3
20260502025001 53 69 0.0 0.0 0.00 0.00 0.00 88 1014.3
20260502024759 53 69 0.0 0.0 0.00 0.00 0.00 87 1014.3
20260502024600 53 70 0.0 0.0 0.00 0.00 0.00 87 1014.4
20260502024359 53 69 0.0 0.0 0.00 0.00 0.00 87 1014.4
20260502024200 53 70 0.0 0.0 0.00 0.00 0.00 87 1014.4
20260502024001 53 69 0.0 0.0 0.00 0.00 0.00 87 1014.3
20260502023759 53 70 0.0 0.0 0.00 0.00 0.00 87 1014.3
20260502023359 53 69 0.0 0.0 0.00 0.00 0.00 87 1014.3
20260502023200 53 69 0.0 0.0 0.00 0.00 0.00 87 1014.3
20260502023000 53 69 0.0 0.0 0.00 0.00 0.00 87 1014.3
20260502022801 53 69 0.0 0.0 0.00 0.00 0.00 87 1014.3
20260502022559 53 69 0.0 0.0 0.00 0.00 0.00 87 1014.3
20260502022400 53 69 0.0 0.0 0.00 0.00 0.00 87 1014.2
20260502022159 53 70 0.0 0.0 0.00 0.00 0.00 87 1014.2
20260502021958 53 70 0.0 0.0 0.00 0.00 0.00 87 1014.2
20260502021757 53 70 0.0 0.0 0.00 0.00 0.00 87 1014.3
20260502021558 53 70 0.0 0.0 0.00 0.00 0.00 86 1014.4
20260502021358 53 70 0.0 0.0 0.00 0.00 0.00 86 1014.4
20260502021157 53 69 0.0 0.0 0.00 0.00 0.00 86 1014.4
20260502020759 54 70 0.0 0.0 0.00 0.00 0.00 86 1014.4
20260502020557 54 70 0.0 0.0 0.00 0.00 0.00 86 1014.4
20260502020359 54 70 0.0 0.0 0.00 0.00 0.00 86 1014.3
20260502020200 54 70 0.0 0.0 0.00 0.00 0.00 86 1014.3
20260502015957 54 70 0.0 0.0 0.00 0.00 0.00 86 1014.3
20260502015758 54 70 0.0 0.0 0.00 0.00 0.00 86 1014.3
20260502015557 54 70 0.0 0.0 0.00 0.00 0.00 86 1014.3
20260502015355 54 70 0.0 0.0 0.00 0.00 0.00 86 1014.3
20260502014956 54 70 0.0 0.0 0.00 0.00 0.00 85 1014.4
20260502014757 54 70 0.0 0.0 0.00 0.00 0.00 85 1014.4
20260502014556 54 70 0.0 0.0 0.00 0.00 0.00 85 1014.4
20260502014356 54 69 0.0 0.0 0.00 0.00 0.00 85 1014.4
20260502014156 54 70 0.0 0.0 0.00 0.00 0.00 85 1014.4
20260502013956 54 70 0.0 0.0 0.00 0.00 0.00 85 1014.3
20260502013755 54 70 0.0 0.0 0.00 0.00 0.00 85 1014.2
20260502013355 54 70 0.0 0.0 0.00 0.00 0.00 85 1014.3
20260502013156 54 69 0.0 0.0 0.00 0.00 0.00 85 1014.3
20260502012955 54 70 0.0 0.0 0.00 0.00 0.00 85 1014.3
20260502012755 54 70 0.0 0.0 0.00 0.00 0.00 85 1014.3
20260502012556 54 70 0.0 0.0 0.00 0.00 0.00 85 1014.3
20260502012356 54 69 0.0 0.0 0.00 0.00 0.00 84 1014.3
20260502011956 55 70 0.0 0.0 0.00 0.00 0.00 84 1014.2
20260502011755 55 69 0.0 0.0 0.00 0.00 0.00 84 1014.2
20260502011557 55 69 0.0 0.0 0.00 0.00 0.00 84 1014.2
20260502011355 55 70 0.0 0.0 0.00 0.00 0.00 84 1014.1
20260502011156 55 70 0.0 0.0 0.00 0.00 0.00 84 1014.1
20260502010956 55 70 0.0 0.0 0.00 0.00 0.00 84 1014.2
20260502010755 55 70 0.0 0.0 0.00 0.00 0.00 84 1014.2
20260502010555 55 70 0.0 0.0 0.00 0.00 0.00 84 1014.3
20260502010355 55 70 0.0 0.0 0.00 0.00 0.00 84 1014.2
20260502010155 55 70 0.0 0.0 0.00 0.00 0.00 83 1014.1
20260502005955 55 69 0.0 0.0 0.00 0.00 0.00 83 1014.0
20260502005755 55 70 0.0 0.0 0.00 0.00 0.00 83 1013.9
20260502005556 55 69 0.0 0.0 0.00 0.00 0.00 83 1013.9
20260502005356 55 69 0.0 0.0 0.00 0.00 0.00 83 1013.8
20260502005157 55 70 0.0 0.0 0.00 0.00 0.00 83 1013.8
20260502004755 55 70 0.0 0.0 0.00 0.00 0.00 83 1013.7
20260502004555 55 70 0.0 0.0 0.00 0.00 0.00 82 1013.8
20260502004355 55 69 0.0 0.0 0.00 0.00 0.00 82 1013.8
20260502004157 55 70 0.0 0.0 0.00 0.00 0.00 82 1013.7
20260502003955 55 70 0.0 0.0 0.00 0.00 0.00 82 1013.9
20260502003755 55 70 0.0 0.0 0.00 0.00 0.00 82 1013.9
20260502003557 55 70 0.0 0.0 0.00 0.00 0.00 82 1013.8
20260502003355 56 70 0.0 0.0 0.00 0.00 0.00 81 1013.8
20260502003156 56 70 0.0 0.0 0.00 0.00 0.00 81 1013.7
20260502002957 56 69 0.0 0.0 0.00 0.00 0.00 81 1013.6
20260502002755 56 69 0.0 0.0 0.00 0.00 0.00 81 1013.5
20260502002555 56 69 0.0 0.0 0.00 0.00 0.00 80 1013.6
20260502002355 56 70 0.0 0.0 0.00 0.00 0.00 80 1013.6
20260502001755 56 69 0.0 0.0 0.00 0.00 0.00 80 1013.5
20260502001553 56 70 0.0 0.0 0.00 0.00 0.00 80 1013.5
20260502001355 56 69 0.0 0.0 0.00 0.00 0.00 79 1013.4
20260502001154 57 69 0.0 0.0 0.00 0.00 0.00 79 1013.4
20260502000953 57 70 0.0 0.0 0.00 0.00 0.00 79 1013.4
20260502000752 57 69 0.0 0.0 0.00 0.00 0.00 79 1013.4
20260502000551 57 70 0.0 0.0 0.00 0.00 0.00 79 1013.5
20260501235946 57 70 0.0 0.0 0.00 0.00 0.00 78 1013.4
20260501235746 57 69 0.0 0.0 0.00 0.00 0.00 78 1013.4
20260501235543 57 70 0.0 0.0 0.00 0.00 0.00 78 1013.4
20260501235345 57 69 0.0 0.0 0.00 0.00 0.00 78 1013.3
20260501235145 57 69 0.0 1.7 0.00 0.00 0.00 78 1013.3
20260501234944 57 69 0.0 1.7 0.00 0.00 0.00 77 1013.4
20260501234744 57 69 0.0 1.7 0.00 0.00 0.00 77 1013.4
20260501234543 58 69 0.0 1.7 0.00 0.00 0.00 77 1013.4
20260501234339 58 69 0.0 1.7 0.00 0.00 0.00 77 1013.4
20260501234141 58 45 0.0 0.0 0.00 0.00 0.00 77 1013.4
20260501233939 58 45 0.0 0.0 0.00 0.00 0.00 77 1013.5
20260501233539 58 45 0.0 1.7 0.00 0.00 0.00 77 1013.6
20260501233339 58 45 0.0 1.7 0.00 0.00 0.00 76 1013.6
20260501232939 58 45 0.0 1.7 0.00 0.00 0.00 77 1013.5
20260501232540 58 45 0.0 0.9 0.00 0.00 0.00 77 1013.4
20260501232137 58 45 0.0 0.9 0.00 0.00 0.00 77 1013.4
20260501231738 58 44 0.0 0.0 0.00 0.00 0.00 77 1013.4
20260501231536 58 44 0.0 0.9 0.00 0.00 0.00 77 1013.4
20260501231335 59 44 0.0 0.9 0.00 0.00 0.00 78 1013.4
20260501230932 59 43 0.0 0.9 0.00 0.00 0.00 77 1013.4
20260501230732 59 43 0.0 0.9 0.00 0.00 0.00 77 1013.4
20260501230531 59 43 0.0 0.9 0.00 0.00 0.00 77 1013.4
20260501230131 59 43 0.0 2.6 0.00 0.00 0.00 77 1013.5
20260501225734 59 43 0.9 2.6 0.00 0.00 0.00 76 1013.4
20260501225532 59 43 0.9 2.6 0.00 0.00 0.00 77 1013.4
20260501225332 59 43 0.9 2.6 0.00 0.00 0.00 76 1013.4
20260501225129 59 145 0.0 2.6 0.00 0.00 0.00 76 1013.4
20260501224930 59 147 0.0 1.7 0.00 0.00 0.00 76 1013.3
20260501224530 59 147 0.0 1.7 0.00 0.00 0.00 75 1013.2
20260501224128 59 147 0.0 1.7 0.00 0.00 0.00 74 1013.3
20260501223928 59 147 0.0 2.6 0.00 0.00 0.00 74 1013.4
20260501223727 59 147 0.0 2.6 0.00 0.00 0.00 74 1013.3
20260501223527 59 147 0.0 2.6 0.00 0.00 0.00 73 1013.4
20260501223329 59 148 0.0 2.6 0.00 0.00 0.00 73 1013.5
20260501223127 60 148 0.9 2.6 0.00 0.00 0.00 73 1013.5
20260501222726 60 187 0.9 2.6 0.00 0.00 0.00 73 1013.5
20260501222526 60 199 0.9 2.6 0.00 0.00 0.00 73 1013.6
20260501222327 60 221 0.9 2.6 0.00 0.00 0.00 73 1013.6
20260501221922 60 68 0.0 2.6 0.00 0.00 0.00 72 1013.6
20260501221721 60 68 0.0 2.6 0.00 0.00 0.00 72 1013.6
20260501221319 60 42 0.0 2.6 0.00 0.00 0.00 71 1013.7
20260501221121 60 40 0.9 2.6 0.00 0.00 0.00 71 1013.7
20260501220917 60 41 0.9 2.6 0.00 0.00 0.00 71 1013.7
20260501220718 61 39 0.9 2.6 0.00 0.00 0.00 71 1013.6
20260501220516 61 59 0.9 4.3 0.00 0.00 0.00 70 1013.6
20260501220313 61 92 0.9 4.3 0.00 0.00 0.00 70 1013.7
20260501220111 61 92 0.9 4.3 0.00 0.00 0.00 70 1013.7
20260501215911 61 107 0.9 4.3 0.00 0.00 0.00 69 1013.7
20260501215710 61 96 0.9 4.3 0.00 0.00 0.00 69 1013.7
20260501215510 61 93 0.9 2.6 0.00 0.00 0.00 70 1013.7
20260501215309 61 90 0.9 2.6 0.00 0.00 0.00 70 1013.7
20260501215109 61 90 0.9 3.5 0.00 0.00 0.00 69 1013.7
20260501214907 61 90 0.9 3.5 0.00 0.00 0.00 69 1013.8
20260501214508 62 82 0.9 3.5 0.00 0.00 0.00 68 1013.8
20260501214308 62 69 0.9 3.5 0.00 0.00 0.00 68 1013.8
20260501214105 62 86 0.9 2.6 0.00 0.00 0.00 68 1013.9
20260501213706 62 81 0.9 2.6 0.00 0.00 0.00 67 1013.8
20260501213507 62 80 0.9 2.6 0.00 0.00 0.00 67 1013.8
20260501213306 62 115 0.9 2.6 0.00 0.00 0.00 68 1013.8
20260501213109 62 115 0.9 2.6 0.00 0.00 0.00 68 1013.8
20260501212903 62 115 0.9 2.6 0.00 0.00 0.00 67 1013.8
20260501212706 62 115 0.9 2.6 0.00 0.00 0.00 67 1013.8
20260501212505 62 115 0.0 2.6 0.00 0.00 0.00 67 1013.8
20260501212301 62 115 0.0 2.6 0.00 0.00 0.00 67 1013.8
20260501212102 63 82 0.0 1.7 0.00 0.00 0.00 68 1013.8
20260501211900 63 82 0.0 1.7 0.00 0.00 0.00 68 1013.8
20260501211659 63 78 0.0 1.7 0.00 0.00 0.00 68 1013.9
20260501211500 63 78 0.0 1.7 0.00 0.00 0.00 68 1013.8
20260501211258 63 78 0.9 2.6 0.00 0.00 0.00 67 1013.9
20260501211057 63 78 0.0 2.6 0.00 0.00 0.00 67 1013.9
20260501210857 63 78 0.9 2.6 0.00 0.00 0.00 67 1013.8
20260501210658 63 78 0.9 2.6 0.00 0.00 0.00 67 1013.8
20260501210457 63 78 0.9 2.6 0.00 0.00 0.00 67 1013.9
20260501210259 63 76 0.9 1.7 0.00 0.00 0.00 67 1013.9
20260501205858 63 76 0.9 2.6 0.00 0.00 0.00 66 1013.9
20260501205655 63 76 0.9 2.6 0.00 0.00 0.00 66 1013.9
20260501205253 63 51 0.9 2.6 0.00 0.00 0.00 65 1013.8
20260501205052 63 98 0.9 2.6 0.00 0.00 0.00 65 1013.9
20260501204852 63 98 0.9 2.6 0.00 0.00 0.00 66 1013.9
20260501204652 63 98 0.9 2.6 0.00 0.00 0.00 65 1013.9
20260501204451 63 96 0.9 2.6 0.00 0.00 0.00 65 1013.9
20260501204250 64 71 0.9 2.6 0.00 0.00 0.00 64 1013.9
20260501203848 64 70 1.7 4.3 0.00 0.00 0.00 64 1013.9
20260501203648 64 181 0.9 4.3 0.00 0.00 0.00 64 1013.9
20260501203446 64 106 0.9 4.3 0.00 0.00 0.00 64 1013.9
20260501203043 64 105 0.9 4.3 0.00 0.00 0.00 63 1014.0
20260501202844 64 119 0.9 3.5 0.00 0.00 0.00 61 1013.9
20260501202642 64 119 0.9 3.5 0.00 0.00 0.00 61 1013.9
20260501202241 64 104 0.9 3.5 0.00 0.00 0.00 61 1013.8
20260501202037 64 104 0.9 3.5 0.00 0.00 0.00 59 1013.9
20260501201836 64 104 0.9 3.5 0.00 0.00 0.00 59 1013.9
20260501201635 64 87 0.9 3.5 0.00 0.00 0.00 59 1013.9
20260501201431 64 128 0.9 3.5 0.00 0.00 0.00 60 1013.9
20260501201232 64 146 0.9 2.6 0.00 0.00 0.00 60 1013.9
20260501201031 64 148 0.9 2.6 0.00 0.00 0.00 59 1013.9
20260501200833 64 148 0.9 2.6 0.00 0.00 0.00 59 1014.0
20260501200632 64 181 0.9 2.6 0.00 0.00 0.00 59 1014.0
20260501200430 64 182 0.9 2.6 0.00 0.00 0.00 60 1014.1
20260501200229 64 139 0.9 2.6 0.00 0.00 0.00 59 1014.1
20260501200030 64 107 0.9 2.6 0.00 0.00 0.00 59 1014.2
20260501195828 64 107 0.9 2.6 0.00 0.00 0.00 59 1014.3
20260501195627 64 107 0.9 2.6 0.00 0.00 0.00 59 1014.2
20260501195428 64 109 0.9 2.6 0.00 0.00 0.00 59 1014.3
20260501195226 64 40 0.9 1.7 0.00 0.00 0.00 61 1014.3